STARLINK-5160 (54080 NORAD) Tracking and Keplerian Element Data

This shows tracking and keplerian element data for the satellite.

Feedback or suggestion? Click here.




ElementValue
Catalog54080
NameSTARLINK-5160
Epoch Orbit550
Epoch Day325.33334491
Epoch Year2022
RAAN351.0473
Inclination53.2171
Eccentricity0.0001349
Argument of Perigee77.7954
Mean Anonmoly189.2079
Mean Motion15.6563933
Decay Rate-0.0149474
L11 54080U 22136AF 22325.33334491 -.01494740 00000+0 -16277-1 0 9999
L22 54080 53.2171 351.0473 0001349 77.7954 189.2079 15.65639330 5504



Live tracking and technical data element details for STARLINK-5160 (NORAD 54080). STARLINK-5160 can be tracked NOW for your location showing map with azimuth and elevation plus other details from your city location.







IsCatalogInMostPopularTable: catalog: 54080, numindb: 1
Update: records affected: 1



GetName: 54080 STARLINK-5160

Hit Count: updated at: Mon, 28 Nov 2022 20:55:47 GMT